Location: Ariel
(45.9570°N, 122.5700°W)
Time: 10:55:10
(UTC-07:00)

A-11 Canister half - Pass Details

Date: 29 August 2019
Orbit: 1514 x 1686 km, 47.2° (Epoch: 14 September)

Event Time Altitude Azimuth Distance (km) Brightness Sun altitude
Rises 20:20:28 0° 275° (W) 4,693 13.5 -5.2°
Reaches altitude 10° 20:23:28 10° 276° (W) 3,727 12.7 -5.7°
Maximum altitude 20:32:59 84° 6° (N) 1,597 9.2 -7.2°
Drops below altitude 10° 20:42:51 10° 95° (E) 3,862 10.5 -8.8°
Enters shadow 20:43:24 - 95° (E) 4,033 10.6 -8.9°
